Location: Jackson Park
(37.2862°N, 79.9123°W)
Time: 14:54:26
(UTC+00:00)

Vanguard 1 Rocket - Pass Details

Date: 14 May 2026
Orbit: 656 x 4211 km, 34.3° (Epoch: 8 June)

Event Time Altitude Azimuth Distance (km) Brightness Sun altitude
Rises 02:47:47 0° 285° (WNW) 6,703 12.6 -24.1°
Reaches altitude 10° 02:51:52 10° 279° (W) 6,076 12.2 -24.6°
Maximum altitude 03:11:27 47° 215° (SW) 4,873 10.8 -26.9°
Enters shadow 03:23:21 32° 169° (S) 5,689 10.8 -28.1°
Drops below altitude 10° 03:34:58 10° 150° (SSE) 7,088 - -29.2°
Sets 03:40:24 0° 145° (SE) 7,831 - -29.7°
